Terminal Aerodrome Forecast
Issued by NWS Pittsburgh, PA

Current Version | Previous Version | Graphics & Text | Print | Product List | Glossary On
Versions: 1 2 3 4 5 6 7 8 9 10 11 12 13 14 15 16 17 18 19 20 21 22 23 24 25 26 27 28 29
000
FTUS41 KPBZ 201700 RRA
TAFPIT
TAF
KPIT 201747Z 2018/2124 18005KT P6SM SCT020 BKN050
      TEMPO 2018/2022 BKN020
     FM210800 14003KT 4SM BR SCT040
      TEMPO 2109/2112 2SM BR BKN002
     FM211300 18005KT P6SM SCT040=

USA.gov is the U.S. government's official web portal to all federal, state and local government web resources and services.